Regional Weather Roundup
Issued by NWS

Home | Current Version | Previous Version | Text Only | Print | Product List | Glossary Off
Versions: 1 2 3 4 5 6 7 8 9 10 11 12 13 14 15 16 17 18 19 20 21 22 23 24 25 26 27 28 29 30 31 32 33 34 35 36 37 38 39 40 41 42 43 44 45 46 47 48 49 50

000
ASUS43 KMPX 230301
RWRMN
WEATHER ROUNDUP FOR MINNESOTA
NATIONAL WEATHER SERVICE TWIN CITIES/CHANHASSEN MN
1000 PM CDT TUE AUG 22 2017


NOTE: "FAIR" INDICATES FEW OR NO CLOUDS BELOW 12,000 FEET WITH NO
SIGNIFICANT WEATHER AND/OR OBSTRUCTIONS TO VISIBILITY. N/A MEANS
CURRENT SKY AND/OR WEATHER CONDITIONS ARE NOT AVAILABLE.

MNZ060>063-068>070-230400-
   Twin Cities Metro

CITY           SKY/WX    TMP DP  RH WIND       PRES   REMARKS
TWIN CITIES    CLEAR     67  48  50 W10       30.04S
ST PAUL        CLEAR     65  49  56 VRB7      30.03S
CRYSTAL        CLEAR     64  47  53 W7        30.03R
BLAINE         CLEAR     64  50  59 W6        30.04R
LAKEVILLE      CLEAR     57  52  82 W6        30.05S
EDEN PRAIRIE   CLEAR     63  50  62 W6        30.04S
SOUTH ST PAUL  CLEAR     64  49  57 W7        30.03S
LAKE ELMO      FAIR      59  52  77 W5        30.04S
$$
MNZ001>005-007-008-013>017-022>024-027-028-230400-
   Northwest Minnesota

CITY           SKY/WX    TMP DP  RH WIND       PRES   REMARKS
BEMIDJI        PTCLDY    55  50  82 W6        30.05S
HALLOCK        CLEAR     57  48  72 NW3       30.06S
ROSEAU           N/A     61  54  77 W7        30.05S
WARROAD        CLEAR     55  52  88 NW3       30.05S
CROOKSTON      CLEAR     61  46  59 N5        30.07S
FOSSTON        CLEAR     52  45  76 CALM      30.08R
DETROIT LAKES  CLEAR     59  46  63 NW3       30.09R
MOORHEAD       CLEAR     59  46  63 CALM      30.08S
PARK RAPIDS    CLEAR     55  48  77 NW7       30.06R
MAHNOMEN       FAIR      55  46  72 NW3       30.07S
$$
MNZ006-009>011-018-025>026-230400-
   North Central Minnesota

CITY           SKY/WX    TMP DP  RH WIND       PRES   REMARKS
BAUDETTE       MOCLDY    59  51  75 N6        30.03S
FLAG ISLAND    PTCLDY    61  48  63 N6        30.02F
INTL FALLS     MOCLDY    55  48  77 NW8       30.00R
WASKISH        PTCLDY    61  54  77 NW9       30.04S
BIG FORK       CLEAR     55  50  82 CALM      30.02S
LONGVILLE      CLEAR     61  52  72 NW7       30.04R
GRAND RAPIDS   CLEAR     56  52  86 VRB3      30.04S
CRANE LAKE     PTCLDY    55  52  88 N5        30.00R
ORR            PTCLDY    55  52  88 NW6       29.98R
COOK           PTCLDY    55  52  88 W7        30.00R
WALKER         FAIR      56  51  82 CALM      30.05S
$$
MNZ012-019>021-037-230400-
   Northeast Minnesota

CITY           SKY/WX    TMP DP  RH WIND       PRES   REMARKS
DULUTH         PTCLDY    55  52  89 NW7       29.99R
ELY            PTCLDY    54  52  94 NW6       29.97R
HIBBING        CLEAR     56  51  84 NW13      30.00S
EVELETH        CLEAR     58  50  75 W6        30.00S
DULUTH HARBOR  CLEAR     64  55  72 W10       29.99R
TWO HARBORS    CLEAR     57  54  88 CALM      29.96R
GRAND MARAIS     N/A     58  54  86 VRB3      29.90R
$$
MNZ029>031-032-039>041-046>048-054>057-064-230400-
   West Central Minnesota

CITY           SKY/WX    TMP DP  RH WIND       PRES   REMARKS
FERGUS FALLS   CLEAR     59  48  67 N3        30.08S
WHEATON        CLEAR     57  50  77 W5        30.11S
MORRIS         CLEAR     57  52  82 W5        30.08S
ALEXANDRIA     CLEAR     57  50  77 NW5       30.09S
ELBOW LAKE     FAIR      58  51  77 NW5       30.09S
WADENA         CLEAR     57  46  67 CALM      30.07S
GLENWOOD       CLEAR     57  48  72 W6        30.09S
APPLETON       CLEAR     57  50  77 W3        30.09S
BENSON         CLEAR     54  48  82 NW6       30.10S
ORTONVILLE     CLEAR     63  52  67 MISG      30.10S
MADISON        CLEAR     59  55  88 W5        30.11R
WILLMAR        FAIR      59  52  77 W3        30.10S
$$
MNZ033>034-036-042>043-049>051-058-059-230400-
   Central Minnesota

CITY           SKY/WX    TMP DP  RH WIND       PRES   REMARKS
ST CLOUD       CLEAR     59  49  69 W3        30.05R
SAUK CENTRE    FAIR      57  51  78 CALM      30.08R
PAYNESVILLE    CLEAR     52  50  92 W5        30.08S
AITKIN         PTCLDY    59  48  67 CALM      30.02S
PINE RIVER     MOCLDY    59  48  67 CALM      30.08S
BRAINERD       PTCLDY    63  46  54 NW8       30.04R
STAPLES        CLEAR     55  45  67 NW5       30.06S
LONG PRAIRIE   FAIR      61  46  59 W7        30.07S
LITTLE FALLS   CLEAR     54  46  76 CALM      30.06R
LITCHFIELD     CLEAR     63  54  72 CALM      30.08S
BUFFALO        CLEAR     62  50  63 W6        30.06S
MAPLE LAKE     CLEAR     60  52  74 CALM      30.07R
HUTCHINSON     CLEAR     57  53  86 W6        30.09S
$$
MNZ037-044-045-052-053-230400-
   East Central Minnesota

CITY           SKY/WX    TMP DP  RH WIND       PRES   REMARKS
PRINCETON      CLEAR     57  50  77 CALM      30.04S
MORA           CLEAR     55  46  71 CALM      30.04S
CAMBRIDGE      CLEAR     63  48  59 CALM      30.03S
RUSH CITY      MOCLDY    58  49  72 CALM      30.02S
MOOSE LAKE     PTCLDY    54  52  94 NW3       30.00R
HINCKLEY       FAIR      59  52  77 NW3       30.01S
CLOQUET        CLEAR     57  48  72 W6        30.00S
MCGREGOR       PTCLDY    59  50  72 NW5       30.03R
$$
MNZ071>073-080-081-089-090-097-098-230400-
   Southwest Minnesota

CITY           SKY/WX    TMP DP  RH WIND       PRES   REMARKS
MONTEVIDEO     CLEAR     57  46  67 NW3       30.10S
GRANITE FALLS  CLEAR     57  54  88 W5        30.11S
CANBY          CLEAR     58  52  78 CALM      30.13R
MARSHALL       CLEAR     57  53  86 W5        30.12R
REDWOOD FALLS  CLEAR     60  50  69 W5        30.09S
OLIVIA         CLEAR     57  50  77 W3        30.09S
PIPESTONE      CLEAR     59  54  82 CALM      30.14S
WINDOM         CLEAR     57  52  82 CALM      30.13R
WORTHINGTON    CLEAR     56  52  86 W7        30.14
JACKSON        CLEAR     55  52  88 CALM      30.13S
TRACY          CLEAR     61  54  76 W3        30.12S
SLAYTON        CLEAR     58  48  69 W3        30.14R
$$
MNZ065>067-074>077-082>085-091>093-230400-
   South Central Minnesota

CITY           SKY/WX    TMP DP  RH WIND       PRES   REMARKS
MANKATO        CLEAR     58  53  84 W6        30.09S
NEW ULM        CLEAR     55  50  82 W6        30.09S
ST JAMES       CLEAR     55  52  88 SW3       30.11S
FAIRMONT       CLEAR     58  53  84 CALM      30.11S
GLENCOE        CLEAR     61  54  78 W5        30.07S
FARIBAULT      CLEAR     59  52  77 W6        30.07F
OWATONNA       CLEAR     54  50  87 W6        30.08S
WASECA         CLEAR     54  52  94 W5        30.09F
ALBERT LEA     CLEAR     61  55  82 CALM      30.09S
$$
MNZ078>079-086>088-094>096-230400-
   Southeast Minnesota

CITY           SKY/WX    TMP DP  RH WIND       PRES   REMARKS
ROCHESTER      CLEAR     54  51  90 W8        30.07S
RED WING       CLEAR     57  50  77 NW3       30.02S
STANTON        CLEAR     60  51  72 W5        30.04S
DODGE CENTER   CLEAR     57  48  72 W7        30.07F
WINONA         CLEAR     59  52  77 CALM      30.03S
AUSTIN         CLEAR     61  50  67 NW6       30.08S
PRESTON        CLEAR     57  49  76 NW8       30.07S
$$
ABBREVIATIONS USED IN REMARKS
   TC - TEMPERATURES IN CELSIUS
  WCI - WIND CHILL INDEX
   HX - HEAT INDEX
  VSB - VISIBILITY
$$



USA.gov is the U.S. government's official web portal to all federal, state and local government web resources and services.